[[{"header":{"parameterUnit":"m.s-1","parameterCategory":1,"la1":30.2992,"la2":30.254,"lo1":-89.0895,"lo2":-89.0443,"dy":0.0025,"dx":0.0025,"nx":19,"ny":19,"refTime":"2026-05-12T21:00:00:Z","depth":0,"parameterNumber":2,"parameterNumberName":"U-component_of_WINDS"},"data":[0,0,0,1.6266,1.6268,1.6356,1.6356,1.6463,1.6464,0,0,0,0,0,0,0,0,0,0,0,1.6234,1.6234,1.6266,1.6268,1.6356,1.6356,1.6463,1.6464,0,0,0,0,0,0,0,0,0,0,0,1.6233,1.6234,1.6234,1.6268,1.6356,1.6356,1.6463,1.6399,0,0,0,0,0,0,0,0,0,0,1.6315,1.6277,1.6234,1.6234,1.6269,1.6356,1.6356,1.6396,1.6403,1.642,0,1.6431,0,1.6449,1.6471,1.6471,0,0,0,1.6274,1.6272,1.6301,1.6235,1.627,1.6355,1.6318,1.64,1.6408,1.6429,1.6432,1.6436,1.6451,1.6471,1.6472,1.6547,1.6548,0,0,1.6269,1.6246,1.6296,1.6306,1.6289,1.6315,1.632,1.6405,1.6408,1.6433,1.6439,1.6452,1.6472,1.6473,1.6547,1.6547,0,0,0,1.6251,1.6242,1.627,1.6301,1.6317,1.6317,1.6324,1.6404,1.6415,1.644,1.6454,1.6472,1.6474,1.6547,1.6547,1.653,0,0,0,1.6249,1.6232,1.6268,1.6255,1.6316,1.6361,1.632,1.6409,1.6419,1.6453,1.6473,1.6475,1.6547,1.6547,1.653,1.6526,0,0,0,1.623,1.623,1.624,1.6253,1.629,1.636,1.6376,1.6412,1.6427,1.6471,1.6475,1.6547,1.6547,1.6531,1.6526,1.6541,0,0,0,1.6204,1.6222,1.624,1.6266,1.6289,1.6348,1.6376,1.6421,1.6456,1.6473,1.6547,1.6547,1.6531,1.6526,1.6541,1.6549,1.6549,0,0,1.6214,1.6223,1.624,1.6258,1.6308,1.6337,1.6386,1.644,1.6466,1.652,1.6522,1.653,1.6526,1.6541,1.6562,1.6562,0,0,0,1.6236,1.6248,1.6267,1.6299,1.6341,1.6378,1.6428,1.6449,1.6496,1.6488,1.654,1.6538,1.6548,1.6553,1.6553,1.6564,1.6548,1.6548,1.6548,1.6216,1.6249,1.6282,1.6326,1.6358,1.6411,1.6442,1.648,1.6503,1.6515,1.6531,1.654,1.6545,1.6545,1.6556,1.6538,1.6538,1.6538,1.6538,1.6235,1.6259,1.6292,1.6335,1.6372,1.641,1.6465,1.648,1.6524,1.6529,1.6539,1.6543,1.6545,1.6556,1.6537,1.6537,1.6537,1.6537,1.6537,1.6226,1.6243,1.6269,1.6323,1.6362,1.6408,1.6449,1.6481,1.6512,1.6522,1.6544,1.6545,1.6551,1.653,1.653,1.653,1.6531,1.6531,1.6531,1.6206,1.6236,1.6265,1.6315,1.6343,1.6384,1.6442,1.6471,1.6513,1.6533,1.6534,1.6558,1.6538,1.6533,1.6531,1.6531,1.6531,1.6531,1.6531,1.6212,1.6217,1.6261,1.6289,1.6354,1.6393,1.6435,1.6494,1.6523,1.6544,1.6567,1.6547,1.6558,1.6558,1.6554,1.6558,1.6558,1.6558,1.6558,1.6204,1.6214,1.6269,1.6313,1.636,1.6404,1.6459,1.6507,1.6558,1.658,1.6584,1.6582,1.6581,1.6593,1.6592,1.6589,1.6602,1.6602,1.6602,1.6211,1.6228,1.6265,1.6314,1.6369,1.6416,1.647,1.6523,1.6582,1.6604,1.6598,1.6596,1.6593,1.659,1.6609,1.6607,1.6602,0,0]},{"header":{"parameterUnit":"m.s-1","parameterCategory":1,"la1":30.2992,"la2":30.254,"lo1":-89.0895,"lo2":-89.0443,"dy":0.0025,"dx":0.0025,"nx":19,"ny":19,"refTime":"2026-05-12T21:00:00:Z","depth":0,"parameterNumber":3,"parameterNumberName":"V-component_of_WINDS"},"data":[0,0,0,-3.0911,-3.0909,-3.0811,-3.0811,-3.0672,-3.0671,0,0,0,0,0,0,0,0,0,0,0,-3.0934,-3.0933,-3.0911,-3.0909,-3.0811,-3.0811,-3.0673,-3.0671,0,0,0,0,0,0,0,0,0,0,0,-3.0934,-3.0933,-3.0932,-3.0908,-3.0811,-3.0811,-3.0673,-3.0751,0,0,0,0,0,0,0,0,0,0,-3.0848,-3.0863,-3.0933,-3.0932,-3.0908,-3.0812,-3.0811,-3.0755,-3.0746,-3.0711,0,-3.0681,0,-3.0674,-3.0661,-3.0661,0,0,0,-3.0912,-3.087,-3.085,-3.0931,-3.0907,-3.0812,-3.0856,-3.075,-3.074,-3.07,-3.0679,-3.0675,-3.0672,-3.066,-3.066,-3.0454,-3.0453,0,0,-3.0918,-3.0912,-3.0857,-3.0844,-3.0861,-3.0859,-3.0853,-3.0744,-3.0721,-3.0679,-3.0672,-3.067,-3.0659,-3.0658,-3.0455,-3.0454,0,0,0,-3.0931,-3.0916,-3.0899,-3.0849,-3.0833,-3.0857,-3.0849,-3.0725,-3.072,-3.067,-3.0668,-3.0658,-3.0657,-3.0457,-3.0455,-3.0393,0,0,0,-3.0934,-3.0923,-3.0901,-3.0896,-3.0835,-3.0778,-3.0833,-3.0728,-3.0716,-3.0669,-3.0658,-3.0655,-3.0458,-3.0456,-3.0398,-3.0364,0,0,0,-3.0942,-3.0924,-3.0909,-3.0896,-3.0854,-3.078,-3.0769,-3.0726,-3.0714,-3.0661,-3.0655,-3.0459,-3.0456,-3.0402,-3.037,-3.0307,0,0,0,-3.0948,-3.0854,-3.0908,-3.0801,-3.0855,-3.0745,-3.077,-3.0687,-3.0634,-3.0658,-3.0458,-3.0455,-3.0403,-3.0374,-3.0311,-3.0251,-3.0227,0,0,-3.0826,-3.0839,-3.0777,-3.0822,-3.0701,-3.076,-3.0628,-3.0584,-3.0582,-3.0496,-3.0491,-3.0396,-3.0371,-3.0308,-3.0095,-3.0076,0,0,0,-3.0736,-3.0691,-3.066,-3.0611,-3.0577,-3.0544,-3.0521,-3.0505,-3.0432,-3.0538,-3.0358,-3.0343,-3.0306,-3.0278,-3.0261,-3.0229,-3.0442,-3.0443,-3.0443,-3.0551,-3.0558,-3.0456,-3.0451,-3.0403,-3.0381,-3.0342,-3.0316,-3.0334,-3.0292,-3.0265,-3.0136,-3.0102,-3.009,-3.0056,-3.0237,-3.0236,-3.0236,-3.0236,-3.037,-3.0307,-3.0338,-3.025,-3.0257,-3.0181,-3.0157,-3.0173,-3.0103,-3.0156,-3.0124,-3.0179,-3.0068,-3.0039,-3.0231,-3.0232,-3.0233,-3.0233,-3.0233,-3.0248,-3.0218,-3.0203,-3.0134,-3.0079,-3.0078,-3.001,-3.0018,-3.0026,-2.9994,-2.9966,-2.9967,-2.9967,-2.9981,-2.9981,-2.998,-2.998,-2.998,-2.9979,-3.0125,-3.011,-3.0053,-3.0011,-2.9981,-2.9943,-2.9923,-2.9892,-2.9861,-2.9872,-2.9872,-2.9894,-3.0058,-3.0097,-2.9972,-2.9974,-2.9974,-2.9975,-2.9976,-2.9933,-2.9979,-2.9891,-2.9861,-2.9813,-2.9758,-2.9772,-2.9711,-2.9688,-2.9653,-2.9683,-2.9804,-2.9817,-2.983,-2.9862,-2.9684,-2.9684,-2.9684,-2.9684,-2.9828,-2.9837,-2.9749,-2.9701,-2.9656,-2.9661,-2.9558,-2.9542,-2.9531,-2.9517,-2.9545,-2.959,-2.9603,-2.9608,-2.9626,-2.9656,-2.9429,-2.9429,-2.9429,-2.9709,-2.9715,-2.9626,-2.9621,-2.9585,-2.9553,-2.9456,-2.9398,-2.9396,-2.9418,-2.9505,-2.9516,-2.9589,-2.9613,-2.9633,-2.9661,-2.9716,0,0]}]]